AAL991 KTPA-KMIA

Flight info

Callsign AAL991
Flight time 0h 42m
Altitude 23000
Route GANDY8 SABEE FROGZ5
Aircraft A320/M-SDE3FGHIRWY/LB1

Departure

Time 2026-05-03 20:56
Airport Tampa International Airport (KTPA)

Arrival

Time 2026-05-03 21:39
Airport Miami International Airport (KMIA)
Time Latitude Longitude Altitude Speed Heading
2026-05-03 20:29 27.97688 -82.53168 34 ft 0 kts 281°
2026-05-03 20:46 27.97686 -82.53160 0 ft 3 kts 282°
2026-05-03 20:46 27.97685 -82.53140 34 ft 2 kts 269°
2026-05-03 20:47 27.97688 -82.53120 33 ft 3 kts 236°
2026-05-03 20:47 27.97699 -82.53105 31 ft 2 kts 224°
2026-05-03 20:47 27.97700 -82.53104 32 ft 0 kts 223°
2026-05-03 20:48 27.97697 -82.53104 31 ft 2 kts 203°
2026-05-03 20:48 27.97669 -82.53085 33 ft 8 kts 143°
2026-05-03 20:48 27.97646 -82.53072 33 ft 0 kts 165°
2026-05-03 20:50 27.97587 -82.53068 32 ft 16 kts 180°
2026-05-03 20:51 27.97458 -82.53072 31 ft 20 kts 183°
2026-05-03 20:51 27.97333 -82.53073 29 ft 14 kts 163°
2026-05-03 20:51 27.97274 -82.53000 28 ft 12 kts 156°
2026-05-03 20:51 27.97199 -82.52999 28 ft 10 kts 182°
2026-05-03 20:52 27.97126 -82.53002 26 ft 10 kts 179°
2026-05-03 20:52 27.97048 -82.53000 27 ft 13 kts 179°
2026-05-03 20:52 27.96945 -82.53007 28 ft 17 kts 183°
2026-05-03 20:52 27.96826 -82.53013 28 ft 17 kts 189°
2026-05-03 20:53 27.96711 -82.53014 27 ft 17 kts 178°
2026-05-03 20:53 27.96596 -82.53019 27 ft 17 kts 181°
2026-05-03 20:53 27.96484 -82.53020 28 ft 15 kts 169°
2026-05-03 20:53 27.96460 -82.53006 28 ft 0 kts 143°
2026-05-03 20:54 27.96444 -82.52971 28 ft 9 kts 103°
2026-05-03 20:55 27.96483 -82.52898 27 ft 14 kts
2026-05-03 20:55 27.96488 -82.52898 27 ft 0 kts
2026-05-03 20:55 27.96534 -82.52896 30 ft 31 kts
2026-05-03 20:56 27.97008 -82.52876 26 ft 103 kts
2026-05-03 20:56 27.97917 -82.52843 34 ft 157 kts
2026-05-03 20:56 27.99042 -82.52783 559 ft 162 kts
2026-05-03 20:56 28.00169 -82.52721 1297 ft 161 kts
2026-05-03 20:57 28.01304 -82.52656 1905 ft 171 kts
2026-05-03 20:57 28.02573 -82.52579 2296 ft 194 kts
2026-05-03 20:57 28.03998 -82.52491 2627 ft 218 kts
2026-05-03 20:57 28.05590 -82.52359 3060 ft 241 kts 14°
2026-05-03 20:58 28.07126 -82.51477 3624 ft 256 kts 45°
2026-05-03 20:58 28.08313 -82.49954 4520 ft 261 kts 53°
2026-05-03 20:58 28.09465 -82.48334 5451 ft 265 kts 54°
2026-05-03 20:58 28.10651 -82.46704 6307 ft 271 kts 54°
2026-05-03 20:59 28.11875 -82.45052 7094 ft 278 kts 53°
2026-05-03 20:59 28.13145 -82.43345 7844 ft 286 kts 53°
2026-05-03 20:59 28.14424 -82.41621 8570 ft 294 kts 53°
2026-05-03 20:59 28.15677 -82.39749 9280 ft 299 kts 65°
2026-05-03 21:00 28.16261 -82.37495 9939 ft 300 kts 91°
2026-05-03 21:00 28.16257 -82.36702 10148 ft 301 kts 98°
2026-05-03 21:00 28.14825 -82.33018 10626 ft 323 kts 138°
2026-05-03 21:00 28.13010 -82.31512 11161 ft 326 kts 160°
2026-05-03 21:01 28.10833 -82.30891 11747 ft 323 kts 183°
2026-05-03 21:01 28.08664 -82.31215 11950 ft 309 kts 205°
2026-05-03 21:01 28.06827 -82.32383 12004 ft 300 kts 221°
2026-05-03 21:01 28.05153 -82.33805 12003 ft 300 kts 221°
2026-05-03 21:02 28.03513 -82.35186 12003 ft 300 kts 220°
2026-05-03 21:02 28.01822 -82.36605 12003 ft 300 kts 220°
2026-05-03 21:02 28.00150 -82.38007 12003 ft 300 kts 220°
2026-05-03 21:02 27.98449 -82.39430 12473 ft 305 kts 220°
2026-05-03 21:03 27.96734 -82.40859 13290 ft 306 kts 221°
2026-05-03 21:03 27.95014 -82.42291 14065 ft 308 kts 221°
2026-05-03 21:03 27.93284 -82.43732 14799 ft 310 kts 221°
2026-05-03 21:03 27.91535 -82.45189 15506 ft 312 kts 221°
2026-05-03 21:04 27.89780 -82.46646 16206 ft 314 kts 221°
2026-05-03 21:04 27.88017 -82.48110 16881 ft 316 kts 222°
2026-05-03 21:04 27.86264 -82.49566 17516 ft 318 kts 222°
2026-05-03 21:04 27.84474 -82.51054 18154 ft 320 kts 223°
2026-05-03 21:05 27.82670 -82.52553 18762 ft 323 kts 223°
2026-05-03 21:05 27.80854 -82.54063 19365 ft 325 kts 222°
2026-05-03 21:05 27.78872 -82.55359 19941 ft 337 kts 210°
2026-05-03 21:05 27.76545 -82.56031 20512 ft 355 kts 194°
2026-05-03 21:06 27.74015 -82.55919 21011 ft 376 kts 176°
2026-05-03 21:06 27.71483 -82.54946 21499 ft 391 kts 165°
2026-05-03 21:06 27.68970 -82.53742 22022 ft 394 kts 165°
2026-05-03 21:06 27.66442 -82.52523 22549 ft 397 kts 165°
2026-05-03 21:07 27.63886 -82.51293 22961 ft 399 kts 165°
2026-05-03 21:07 27.61378 -82.50093 23061 ft 394 kts 165°
2026-05-03 21:07 27.58873 -82.48888 23083 ft 377 kts 166°
2026-05-03 21:07 27.56496 -82.47700 23084 ft 374 kts 161°
2026-05-03 21:08 27.54228 -82.46348 23084 ft 373 kts 161°
2026-05-03 21:08 27.51937 -82.44978 23084 ft 372 kts 161°
2026-05-03 21:08 27.49647 -82.43609 23084 ft 372 kts 161°
2026-05-03 21:08 27.47362 -82.42241 23084 ft 372 kts 161°
2026-05-03 21:09 27.45079 -82.40871 23084 ft 372 kts 161°
2026-05-03 21:09 27.42794 -82.39498 23084 ft 372 kts 161°
2026-05-03 21:09 27.40524 -82.38135 23084 ft 372 kts 161°
2026-05-03 21:09 27.38227 -82.36756 23084 ft 372 kts 161°
2026-05-03 21:10 27.35942 -82.35389 23083 ft 372 kts 161°
2026-05-03 21:10 27.33663 -82.34025 23083 ft 372 kts 161°
2026-05-03 21:10 27.31373 -82.32653 23082 ft 372 kts 161°
2026-05-03 21:10 27.29086 -82.31282 23082 ft 372 kts 161°
2026-05-03 21:11 27.26830 -82.29926 23082 ft 372 kts 161°
2026-05-03 21:11 27.24542 -82.28555 23083 ft 372 kts 161°
2026-05-03 21:11 27.22267 -82.27197 23084 ft 372 kts 161°
2026-05-03 21:11 27.20736 -82.26286 23084 ft 372 kts 161°
2026-05-03 21:12 27.17681 -82.24466 23085 ft 372 kts 161°
2026-05-03 21:12 27.15396 -82.23101 23086 ft 372 kts 161°
2026-05-03 21:12 27.13115 -82.21738 23086 ft 372 kts 161°
2026-05-03 21:12 27.10820 -82.20366 23087 ft 372 kts 161°
2026-05-03 21:13 27.08485 -82.19239 23086 ft 362 kts 172°
2026-05-03 21:13 27.06057 -82.18610 23086 ft 353 kts 179°
2026-05-03 21:13 27.03641 -82.18154 23085 ft 353 kts 179°
2026-05-03 21:13 27.02024 -82.17848 23085 ft 353 kts 179°
2026-05-03 21:14 26.98805 -82.17226 23084 ft 354 kts 179°
2026-05-03 21:14 26.96382 -82.16750 23084 ft 354 kts 179°
2026-05-03 21:14 26.94755 -82.16431 23083 ft 354 kts 179°
2026-05-03 21:14 26.92321 -82.15956 23083 ft 353 kts 179°
2026-05-03 21:15 26.89903 -82.15485 23082 ft 353 kts 179°
2026-05-03 21:15 26.87487 -82.15018 23081 ft 353 kts 179°
2026-05-03 21:15 26.85057 -82.14550 23080 ft 353 kts 179°
2026-05-03 21:15 26.82673 -82.14089 23078 ft 353 kts 179°
2026-05-03 21:16 26.80243 -82.13620 23074 ft 354 kts 179°
2026-05-03 21:16 26.77780 -82.13145 23056 ft 355 kts 179°
2026-05-03 21:16 26.75377 -82.12679 23048 ft 356 kts 179°
2026-05-03 21:16 26.72938 -82.12159 23044 ft 358 kts 178°
2026-05-03 21:17 26.70492 -82.11592 23043 ft 359 kts 177°
2026-05-03 21:17 26.68048 -82.11003 23045 ft 359 kts 177°
2026-05-03 21:17 26.65607 -82.10407 23044 ft 360 kts 177°
2026-05-03 21:17 26.63154 -82.09813 23044 ft 360 kts 177°
2026-05-03 21:18 26.60698 -82.09226 23045 ft 360 kts 177°
2026-05-03 21:18 26.58249 -82.08650 23041 ft 360 kts 177°
2026-05-03 21:18 26.55790 -82.08063 23041 ft 362 kts 174°
2026-05-03 21:18 26.53422 -82.07113 23046 ft 374 kts 162°
2026-05-03 21:19 26.51181 -82.05555 23044 ft 386 kts 149°
2026-05-03 21:19 26.49153 -82.03550 23038 ft 390 kts 146°
2026-05-03 21:19 26.47141 -82.01506 23037 ft 390 kts 146°
2026-05-03 21:19 26.45130 -81.99468 23041 ft 391 kts 146°
2026-05-03 21:20 26.43120 -81.97438 23038 ft 391 kts 146°
2026-05-03 21:20 26.41101 -81.95406 23042 ft 391 kts 146°
2026-05-03 21:20 26.39069 -81.93366 23042 ft 391 kts 146°
2026-05-03 21:20 26.37046 -81.91339 23044 ft 391 kts 146°
2026-05-03 21:21 26.35034 -81.89322 23046 ft 391 kts 145°
2026-05-03 21:21 26.33042 -81.87325 23045 ft 391 kts 145°
2026-05-03 21:21 26.31016 -81.85292 23045 ft 390 kts 145°
2026-05-03 21:21 26.28994 -81.83261 23043 ft 390 kts 145°
2026-05-03 21:22 26.26975 -81.81235 23047 ft 390 kts 145°
2026-05-03 21:22 26.24987 -81.79156 23044 ft 394 kts 139°
2026-05-03 21:22 26.23285 -81.76722 23048 ft 402 kts 128°
2026-05-03 21:22 26.21969 -81.73968 23044 ft 407 kts 121°
2026-05-03 21:23 26.20729 -81.71100 23039 ft 407 kts 121°
2026-05-03 21:23 26.19497 -81.68263 23043 ft 407 kts 121°
2026-05-03 21:23 26.18262 -81.65422 23046 ft 407 kts 121°
2026-05-03 21:23 26.17046 -81.62622 23037 ft 407 kts 121°
2026-05-03 21:24 26.15798 -81.59751 22995 ft 406 kts 121°
2026-05-03 21:24 26.14569 -81.56922 22570 ft 404 kts 121°
2026-05-03 21:24 26.13366 -81.54159 22168 ft 400 kts 121°
2026-05-03 21:24 26.12154 -81.51381 21768 ft 397 kts 121°
2026-05-03 21:25 26.10949 -81.48623 21624 ft 395 kts 121°
2026-05-03 21:25 26.09745 -81.45874 21622 ft 396 kts 121°
2026-05-03 21:25 26.08540 -81.43127 21621 ft 396 kts 121°
2026-05-03 21:25 26.07325 -81.40360 21617 ft 396 kts 121°
2026-05-03 21:26 26.06118 -81.37613 21580 ft 396 kts 121°
2026-05-03 21:26 26.04922 -81.34874 20900 ft 394 kts 121°
2026-05-03 21:26 26.03728 -81.32126 20111 ft 391 kts 121°
2026-05-03 21:26 26.02550 -81.29409 19413 ft 386 kts 121°
2026-05-03 21:27 26.01389 -81.26733 18717 ft 381 kts 121°
2026-05-03 21:27 26.00259 -81.24133 18044 ft 376 kts 121°
2026-05-03 21:27 25.99126 -81.21530 17372 ft 372 kts 121°
2026-05-03 21:27 25.98013 -81.18974 16714 ft 366 kts 120°
2026-05-03 21:28 25.96895 -81.16415 16067 ft 361 kts 120°
2026-05-03 21:28 25.95805 -81.13927 15432 ft 356 kts 120°
2026-05-03 21:28 25.94728 -81.11474 14795 ft 351 kts 120°
2026-05-03 21:28 25.93660 -81.09041 14150 ft 347 kts 120°
2026-05-03 21:29 25.92610 -81.06647 13521 ft 342 kts 120°
2026-05-03 21:29 25.91576 -81.04285 12900 ft 337 kts 120°
2026-05-03 21:29 25.90590 -81.01952 12271 ft 333 kts 117°
2026-05-03 21:29 25.89670 -80.99603 11683 ft 327 kts 116°
2026-05-03 21:30 25.88811 -80.97331 11169 ft 319 kts 115°
2026-05-03 21:30 25.87967 -80.95068 11015 ft 315 kts 115°
2026-05-03 21:30 25.87127 -80.92824 10991 ft 315 kts 115°
2026-05-03 21:30 25.86282 -80.90585 10393 ft 313 kts 115°
2026-05-03 21:31 25.85434 -80.88362 9708 ft 311 kts 115°
2026-05-03 21:31 25.84593 -80.86170 9080 ft 306 kts 115°
2026-05-03 21:31 25.83763 -80.84010 8425 ft 302 kts 115°
2026-05-03 21:31 25.82941 -80.81879 7741 ft 299 kts 115°
2026-05-03 21:32 25.82126 -80.79763 7174 ft 293 kts 115°
2026-05-03 21:32 25.81325 -80.77685 6883 ft 293 kts 115°
2026-05-03 21:32 25.80521 -80.75599 6581 ft 293 kts 115°
2026-05-03 21:32 25.79724 -80.73530 6283 ft 291 kts 115°
2026-05-03 21:33 25.78930 -80.71466 5984 ft 290 kts 115°
2026-05-03 21:33 25.78137 -80.69411 5679 ft 289 kts 115°
2026-05-03 21:33 25.77409 -80.67363 5388 ft 287 kts 107°
2026-05-03 21:33 25.77149 -80.65171 5097 ft 281 kts 89°
2026-05-03 21:34 25.77247 -80.63054 4820 ft 275 kts 87°
2026-05-03 21:34 25.77348 -80.60956 4535 ft 269 kts 87°
2026-05-03 21:34 25.77442 -80.58908 4263 ft 263 kts 88°
2026-05-03 21:34 25.77525 -80.56895 3999 ft 259 kts 88°
2026-05-03 21:35 25.77609 -80.54928 3775 ft 252 kts 88°
2026-05-03 21:35 25.77693 -80.53000 3552 ft 247 kts 88°
2026-05-03 21:35 25.77774 -80.51125 3380 ft 239 kts 88°
2026-05-03 21:35 25.77852 -80.49310 3191 ft 234 kts 88°
2026-05-03 21:36 25.77930 -80.47504 2895 ft 234 kts 88°
2026-05-03 21:36 25.78007 -80.45692 2601 ft 238 kts 88°
2026-05-03 21:36 25.78085 -80.43880 2291 ft 228 kts 88°
2026-05-03 21:36 25.78157 -80.42207 1982 ft 208 kts 89°
2026-05-03 21:37 25.78223 -80.40654 1718 ft 192 kts 88°
2026-05-03 21:37 25.78282 -80.39263 1473 ft 174 kts 89°
2026-05-03 21:37 25.78336 -80.37993 1265 ft 159 kts 89°
2026-05-03 21:37 25.78383 -80.36811 1059 ft 149 kts 90°
2026-05-03 21:38 25.78431 -80.35690 902 ft 144 kts 90°
2026-05-03 21:38 25.78478 -80.34579 712 ft 142 kts 89°
2026-05-03 21:38 25.78527 -80.33498 526 ft 140 kts 89°
2026-05-03 21:38 25.78579 -80.32423 319 ft 138 kts 88°
2026-05-03 21:39 25.78618 -80.31367 133 ft 134 kts 89°
2026-05-03 21:39 25.78653 -80.30389 18 ft 113 kts 87°
2026-05-03 21:39 25.78684 -80.29849 18 ft 27 kts 87°
2026-05-03 21:39 25.78687 -80.29769 18 ft 20 kts 87°
2026-05-03 21:40 25.78697 -80.29533 18 ft 39 kts 86°
2026-05-03 21:40 25.78739 -80.29243 18 ft 30 kts 62°
2026-05-03 21:40 25.78797 -80.29160 17 ft 0 kts 55°
2026-05-03 21:41 25.78808 -80.29136 17 ft 11 kts 66°
2026-05-03 21:41 25.78833 -80.29015 17 ft 17 kts 81°
2026-05-03 21:41 25.78884 -80.28891 16 ft 19 kts 37°
2026-05-03 21:41 25.79018 -80.28879 14 ft 21 kts 357°
2026-05-03 21:42 25.79116 -80.28882 12 ft 0 kts 358°
2026-05-03 21:43 25.79118 -80.28883 12 ft 3 kts 358°
2026-05-03 21:43 25.79227 -80.28882 13 ft 24 kts
2026-05-03 21:43 25.79302 -80.28881 14 ft 8 kts
2026-05-03 21:43 25.79325 -80.28869 14 ft 5 kts 34°
2026-05-03 21:44 25.79360 -80.28813 14 ft 11 kts 61°
2026-05-03 21:44 25.79385 -80.28744 15 ft 8 kts 86°
2026-05-03 21:44 25.79367 -80.28690 16 ft 7 kts 118°
2026-05-03 21:44 25.79349 -80.28654 16 ft 4 kts 120°
2026-05-03 21:45 25.79335 -80.28607 17 ft 9 kts 91°
2026-05-03 21:45 25.79403 -80.28561 18 ft 15 kts 19°
2026-05-03 21:45 25.79467 -80.28461 20 ft 17 kts 71°